Location: Hylvaty SDH
(49.9612°N, 16.4057°E)
Time: 01:08:25
(UTC+01:00)

Transit 4A - Pass Details

Date: 14 August 2020
Orbit: 864 x 981 km, 66.8° (Epoch: 15 January)

Event Time Altitude Azimuth Distance (km) Brightness Sun altitude
Rises 15:15:51 0° 318° (NW) 3,608 11.0 44.6°
Reaches altitude 10° 15:18:56 10° 333° (NNW) 2,682 10.3 44.2°
Maximum altitude 15:23:53 24° 25° (NNE) 1,905 9.4 43.6°
Drops below altitude 10° 15:28:53 10° 77° (ENE) 2,724 10.0 43.0°
Sets 15:32:03 0° 91° (E) 3,677 10.7 42.6°
